Погода в Пречистом

Россия / Ярославская область     58°25′28″N   40°19′29″E
темп.,
°C
ветер,
м/с
пор.,
м/с
влажн.,
%
обл.,
%
осадки,
мм/ч
давл.,
гПа
погр.,
м
1 июля, пт
пт100:00+10св39730 0.0 1019174
03:00+7св24790 0.0 102173
06:00+11св37660 0.0 1021239
09:00+15всв46420 0.0 10221206
12:00+19св46344 0.0 10221547
15:00+21св45335 0.0 10221832
18:00+20св24445 0.0 10211628
21:00+14с116957 0.0 102211
2 июля, сб
сб200:00+11сз227413 0.0 102311
03:00+10сз2374100 0.0 102348
06:00+14зсз286737 0.0 1022207
09:00+17зсз386122 0.0 1022416
12:00+21сз374893 0.0 1020580
15:00+26ссз484226 0.0 10172163
18:00+26ссз47505 0.0 10161404
21:00+19ссз367961 0.0 1016105
3 июля, вс
вс300:00+16ссв26847 0.0 101798
03:00+14ссв238714 0.0 101757
06:00+17ссв257842 0.0 1017151
09:00+22св34550 0.0 1017859
12:00+25св34440 0.0 10171776
15:00+26ссв33390 0.0 10162153
18:00+25ссв24482 0.0 1016808
21:00+18всв11720 0.0 101711
4 июля, пн
пн400:00+15вюв11734 0.0 101711
03:00+14ююз11760 0.0 101811
06:00+18з11700 0.0 101754
09:00+24з12520 0.0 1017642
12:00+27зсз234215 0.0 10172228
15:00+29зсз233622 0.0 10152472
18:00+24сз366154 0.0 1015274
21:00+20зсз117534 0.0 101613
5 июля, вт
вт500:00+20з2367100 0.0 101652
03:00+17юз117298 0.0 101611
06:00+19юз1379100 0.0 1016100
09:00+23юз3557100 0.0 1015472
12:00+26ююз355366 0.1 10141167
15:00+24юз2570100 0.2 1013142
18:00+23зюз368490 0.8 1012169
21:00+18з31097100 3.9 1012285